KK4OHF Weather Reports


time (UTC)temp
F
wind
direction
speed
knots
gust
knots
rain 1hr
in
rain 24hr
in
rain mn
in
humidity
%
barometer
mb
20260902194006 94 12 1.7 2.6 0.00 0.00 0.00 46 1017.5
20260902193505 95 350 0.9 2.6 0.00 0.00 0.00 45 1017.5
20260902193006 96 1 0.9 2.6 0.00 0.00 0.00 45 1017.9
20260902192005 95 71 0.9 2.6 0.00 0.00 0.00 48 1017.9
20260902191506 95 8 0.9 2.6 0.00 0.00 0.00 48 1017.9
20260902191005 95 112 0.9 2.6 0.00 0.00 0.00 46 1018.0
20260902190507 95 100 0.9 2.6 0.00 0.00 0.00 47 1018.0
20260902190005 95 152 0.9 2.6 0.00 0.00 0.00 47 1018.0
20260902185504 95 341 0.9 2.6 0.00 0.00 0.00 47 1018.0
20260902185006 95 15 1.7 2.6 0.00 0.00 0.00 47 1018.5
20260902184505 94 15 0.9 2.6 0.00 0.00 0.00 49 1018.5
20260902184006 95 72 1.7 2.6 0.00 0.00 0.00 47 1018.5
20260902183505 96 64 0.9 2.6 0.00 0.00 0.00 49 1018.5
20260902183005 94 13 0.9 2.6 0.00 0.00 0.00 50 1018.4
20260902182504 94 352 0.9 2.6 0.00 0.00 0.00 49 1018.4
20260902182005 94 355 1.7 2.6 0.00 0.00 0.00 48 1018.5
20260902181505 94 354 0.9 2.6 0.00 0.00 0.00 48 1018.5
20260902180007 94 229 0.9 2.6 0.00 0.00 0.00 47 1018.8
20260902175505 93 24 0.9 2.6 0.00 0.00 0.00 49 1018.8
20260902175005 93 51 0.9 2.6 0.00 0.00 0.00 51 1018.8
20260902174506 94 14 0.9 1.7 0.00 0.00 0.00 50 1018.8
20260902174005 93 348 0.9 1.7 0.00 0.00 0.00 54 1018.9
20260902172505 93 289 0.9 2.6 0.00 0.00 0.00 52 1019.0
20260902172005 94 38 0.9 2.6 0.00 0.00 0.00 52 1019.2
20260902171505 94 336 1.7 2.6 0.00 0.00 0.00 52 1019.2
20260902171005 94 54 0.9 2.6 0.00 0.00 0.00 53 1019.3
20260902170505 93 14 2.6 5.2 0.00 0.00 0.00 50 1019.3
20260902170005 94 59 0.0 2.6 0.00 0.00 0.00 52 1019.5
20260902165505 94 4 1.7 2.6 0.00 0.00 0.00 55 1019.5
20260902164505 93 302 1.7 2.6 0.00 0.00 0.00 51 1019.5
20260902164005 94 353 0.9 4.3 0.00 0.00 0.00 53 1019.5
20260902163505 94 290 0.9 4.3 0.00 0.00 0.00 54 1019.5
20260902163005 92 29 0.9 2.6 0.00 0.00 0.00 56 1020.0
20260902162505 92 349 0.9 2.6 0.00 0.00 0.00 56 1020.0
20260902162005 93 286 1.7 2.6 0.00 0.00 0.00 53 1020.0
20260902161506 93 234 0.9 2.6 0.00 0.00 0.00 55 1020.0
20260902161005 93 310 1.7 4.3 0.00 0.00 0.00 54 1020.0
20260902160505 92 240 1.7 4.3 0.00 0.00 0.00 53 1020.0
20260902155504 92 280 0.9 2.6 0.00 0.00 0.00 56 1020.0
20260902154005 90 278 0.9 2.6 0.00 0.00 0.00 61 1020.0
20260902153006 91 287 1.7 4.3 0.00 0.00 0.00 59 1020.0
20260902152504 90 267 0.9 2.6 0.00 0.00 0.00 60 1020.0
20260902152005 89 260 0.9 4.3 0.00 0.00 0.00 59 1020.0
20260902151505 89 220 0.9 5.2 0.00 0.00 0.00 61 1020.0
20260902151006 89 272 1.7 6.1 0.00 0.00 0.00 61 1020.0
20260902150504 89 326 1.7 4.3 0.00 0.00 0.00 61 1020.0
20260902150005 89 4 0.9 2.6 0.00 0.00 0.00 64 1020.0
20260902145505 88 5 0.9 2.6 0.00 0.00 0.00 65 1020.0
20260902145006 87 333 0.9 5.2 0.00 0.00 0.00 66 1019.6
20260902144505 87 285 3.5 6.1 0.00 0.00 0.00 64 1019.6
20260902144005 87 276 2.6 6.1 0.00 0.00 0.00 65 1019.6
20260902143505 87 323 2.6 7.8 0.00 0.00 0.00 64 1019.6
20260902143005 88 280 1.7 7.8 0.00 0.00 0.00 66 1019.6
20260902142505 87 298 0.9 4.3 0.00 0.00 0.00 68 1019.6
20260902142005 87 242 1.7 2.6 0.00 0.00 0.00 68 1019.6
20260902141505 85 239 1.7 5.2 0.00 0.00 0.00 69 1019.6
20260902141005 86 258 1.7 4.3 0.00 0.00 0.00 70 1019.6
20260902140505 85 255 2.6 4.3 0.00 0.00 0.00 70 1019.6
20260902135504 83 232 1.7 2.6 0.00 0.00 0.00 76 1019.6
20260902135005 82 272 0.9 2.6 0.00 0.00 0.00 80 1019.6
20260902134005 78 273 0.9 2.6 0.00 0.00 0.00 88 1019.6
20260902133005 76 268 0.9 1.7 0.00 0.00 0.00 89 1019.6
20260902132505 75 268 0.9 2.6 0.00 0.00 0.00 89 1019.6
20260902132006 75 268 0.9 1.7 0.00 0.00 0.00 89 1019.6
20260902131504 75 268 0.9 1.7 0.00 0.00 0.00 89 1019.6
20260902131006 75 355 0.0 0.9 0.00 0.00 0.00 89 1019.6
20260902130505 75 355 0.0 0.9 0.00 0.00 0.00 89 1019.6
20260902130005 74 355 0.0 0.9 0.00 0.00 0.00 89 1019.6
20260902125505 74 355 0.0 0.9 0.00 0.00 0.00 89 1019.6
20260902125005 73 355 0.0 0.9 0.00 0.00 0.00 89 1019.6
20260902124506 72 355 0.0 0.9 0.00 0.00 0.00 89 1019.6
20260902124006 72 355 0.0 1.7 0.00 0.00 0.00 89 1019.6
20260902123505 72 355 0.9 1.7 0.00 0.00 0.00 89 1019.6
20260902123005 72 355 0.0 0.9 0.00 0.00 0.00 89 1019.6
20260902122506 71 355 0.0 0.9 0.00 0.00 0.00 89 1019.6
20260902122005 71 355 0.0 0.9 0.00 0.00 0.00 89 1019.3
20260902120505 71 355 0.0 0.9 0.00 0.00 0.00 89 1019.2
20260902120005 71 355 0.0 0.9 0.00 0.00 0.00 90 1019.1
20260902115506 71 355 0.0 0.9 0.00 0.00 0.00 90 1019.1
20260902115005 71 355 0.0 0.0 0.00 0.00 0.00 90 1019.1
20260902114505 71 355 0.0 0.9 0.00 0.00 0.00 90 1019.0
20260902114005 71 355 0.0 1.7 0.00 0.00 0.00 90 1019.0
20260902113505 71 355 0.0 0.9 0.00 0.00 0.00 90 1019.0
20260902113005 71 355 0.0 0.0 0.00 0.00 0.00 90 1019.0
20260902112505 71 355 0.0 0.0 0.00 0.00 0.00 89 1019.0
20260902112005 71 355 0.0 0.0 0.00 0.00 0.00 89 1018.9
20260902111505 71 355 0.0 0.9 0.00 0.00 0.00 89 1018.9
20260902111006 71 355 0.0 0.0 0.00 0.00 0.00 89 1018.9
20260902110506 71 355 0.0 0.0 0.00 0.00 0.00 89 1018.9
20260902110007 71 355 0.9 1.7 0.00 0.00 0.00 89 1018.5
20260902104506 71 355 0.0 0.9 0.00 0.00 0.00 89 1018.5
20260902104005 71 355 0.0 1.7 0.00 0.00 0.00 89 1018.5
20260902103505 71 355 0.9 1.7 0.00 0.00 0.00 89 1018.5
20260902102505 71 355 0.0 0.9 0.00 0.00 0.00 90 1018.5
20260902101505 71 355 0.0 1.7 0.00 0.00 0.00 90 1018.5
20260902101006 71 355 0.0 0.9 0.00 0.00 0.00 90 1018.4
20260902100504 71 355 0.0 0.0 0.00 0.00 0.00 90 1018.4
20260902100004 71 355 0.0 0.0 0.00 0.00 0.00 90 1018.4
20260902095505 71 355 0.0 0.0 0.00 0.00 0.00 90 1018.4
20260902095006 71 355 0.0 0.0 0.00 0.00 0.00 90 1018.4
20260902094504 71 355 0.0 0.0 0.00 0.00 0.00 90 1018.4
20260902094005 71 355 0.0 0.0 0.00 0.00 0.00 89 1018.4
20260902093505 71 355 0.0 0.0 0.00 0.00 0.00 89 1018.4
20260902093006 72 355 0.0 0.0 0.00 0.00 0.00 89 1017.8
20260902092005 72 355 0.0 0.0 0.00 0.00 0.00 89 1017.8
20260902091006 72 355 0.0 0.0 0.00 0.00 0.00 89 1017.8
20260902090504 72 355 0.0 0.0 0.00 0.00 0.00 89 1017.8
20260902090005 72 355 0.0 0.0 0.00 0.00 0.00 89 1017.8
20260902085505 72 355 0.0 0.0 0.00 0.00 0.00 89 1017.8
20260902084505 72 355 0.0 0.0 0.00 0.00 0.00 89 1017.8
20260902083505 72 355 0.0 0.0 0.00 0.00 0.00 89 1017.8
20260902083005 72 355 0.0 0.0 0.00 0.00 0.00 89 1017.8
20260902082504 72 355 0.0 0.0 0.00 0.00 0.00 89 1017.8
20260902082005 72 355 0.0 0.0 0.00 0.00 0.00 89 1017.9
20260902081504 72 355 0.0 0.9 0.00 0.00 0.00 89 1017.9
20260902081005 72 355 0.0 0.0 0.00 0.00 0.00 89 1017.8
20260902080504 72 355 0.0 0.9 0.00 0.00 0.00 89 1017.8
20260902080005 73 355 0.0 0.0 0.00 0.00 0.00 89 1017.7
20260902075505 73 355 0.0 0.0 0.00 0.00 0.00 89 1017.7
20260902075005 73 355 0.0 0.9 0.00 0.00 0.00 89 1017.7
20260902074505 73 355 0.0 0.9 0.00 0.00 0.00 89 1017.7
20260902074005 73 355 0.0 0.0 0.00 0.00 0.00 89 1017.6
20260902073505 73 355 0.0 0.0 0.00 0.00 0.00 89 1017.6
20260902073005 73 355 0.0 0.0 0.00 0.00 0.00 89 1017.8
20260902072505 73 355 0.0 0.0 0.00 0.00 0.00 89 1017.8
20260902072006 73 355 0.0 0.0 0.00 0.00 0.00 89 1017.8
20260902071505 73 355 0.0 0.0 0.00 0.00 0.00 89 1017.7
20260902071005 73 355 0.0 0.0 0.00 0.00 0.00 89 1017.7
20260902065006 73 355 0.0 0.0 0.00 0.00 0.00 89 1017.8
20260902064505 74 355 0.0 0.0 0.00 0.00 0.00 89 1017.8
20260902064005 74 355 0.0 0.9 0.00 0.00 0.00 89 1017.8
20260902063506 74 355 0.0 0.9 0.00 0.00 0.00 89 1017.8
20260902062506 74 355 0.0 0.0 0.00 0.00 0.00 88 1017.9
20260902062004 74 355 0.0 0.0 0.00 0.00 0.00 88 1017.9
20260902061005 74 355 0.0 0.9 0.00 0.00 0.00 88 1017.9
20260902060005 74 355 0.0 0.0 0.00 0.00 0.00 88 1017.9
20260902055005 74 355 0.0 0.0 0.00 0.00 0.00 88 1018.0
20260902054006 75 355 0.0 0.0 0.00 0.00 0.00 88 1018.1
20260902053504 75 355 0.0 0.0 0.00 0.00 0.00 88 1018.1
20260902052504 75 355 0.0 0.9 0.00 0.00 0.00 88 1018.0
20260902051506 75 355 0.0 0.0 0.00 0.00 0.00 88 1018.0
20260902051006 75 355 0.0 0.0 0.00 0.00 0.00 88 1018.1
20260902050007 75 355 0.0 0.0 0.00 0.00 0.00 87 1018.2
20260902045505 75 355 0.0 0.9 0.00 0.00 0.00 87 1018.2
20260902045005 76 355 0.0 0.9 0.00 0.00 0.00 88 1018.2
20260902044505 76 355 0.0 0.9 0.00 0.00 0.00 87 1018.2
20260902044005 76 355 0.0 0.9 0.00 0.00 0.00 87 1018.3
20260902043505 76 355 0.0 0.0 0.00 0.00 0.00 87 1018.3
20260902043006 76 355 0.0 0.9 0.00 0.00 0.00 87 1018.3
20260902042505 76 355 0.0 0.0 0.00 0.00 0.00 87 1018.3
20260902041505 76 355 0.0 0.0 0.00 0.00 0.00 87 1018.2
20260902041005 76 355 0.0 0.0 0.00 0.00 0.00 87 1018.2
20260902040005 77 355 0.0 0.0 0.00 0.00 0.00 87 1018.3
20260902035505 77 355 0.0 0.0 0.00 0.00 0.00 86 1018.3
20260902035006 77 355 0.0 0.0 0.00 0.00 0.00 86 1018.3
20260902034505 77 355 0.0 0.0 0.00 0.00 0.00 86 1018.4
20260902034005 77 355 0.0 0.9 0.00 0.00 0.00 86 1018.4
20260902033005 77 355 0.0 0.9 0.00 0.00 0.00 86 1018.4
20260902032005 78 355 0.0 0.9 0.00 0.00 0.00 85 1018.5
20260902031006 78 355 0.0 0.9 0.00 0.00 0.00 85 1018.5
20260902030505 78 355 0.0 0.0 0.00 0.00 0.00 84 1018.5
20260902030006 78 355 0.0 0.0 0.00 0.00 0.00 84 1018.1
20260902025005 79 355 0.0 0.0 0.00 0.00 0.00 84 1018.1
20260902024505 79 355 0.0 0.0 0.00 0.00 0.00 84 1018.1
20260902024005 79 355 0.0 0.0 0.00 0.00 0.00 84 1018.1
20260902023505 79 355 0.0 0.0 0.00 0.00 0.00 84 1018.1
20260902023006 79 355 0.0 0.0 0.00 0.00 0.00 84 1018.1
20260902022505 79 355 0.0 0.0 0.00 0.00 0.00 83 1018.1
20260902022006 80 355 0.0 0.9 0.00 0.00 0.00 83 1017.9
20260902021505 80 355 0.0 0.9 0.00 0.00 0.00 83 1017.9
20260902021006 80 355 0.0 0.0 0.00 0.00 0.00 83 1017.9
20260902020505 80 355 0.0 0.0 0.00 0.00 0.00 83 1017.9
20260902020004 80 355 0.0 0.9 0.00 0.00 0.00 82 1017.8
20260902015506 81 355 0.0 0.9 0.00 0.00 0.00 82 1017.8
20260902014506 81 355 0.0 0.0 0.00 0.00 0.00 81 1017.8
20260902013505 82 355 0.0 0.0 0.00 0.00 0.00 81 1017.5
20260902012005 82 355 0.0 0.0 0.00 0.00 0.00 80 1017.4
20260902011504 83 355 0.0 0.0 0.00 0.00 0.00 79 1017.4
20260902011006 83 355 0.0 0.9 0.00 0.00 0.00 79 1017.4
20260902010505 83 355 0.0 0.0 0.00 0.00 0.00 79 1017.4
20260902010005 84 355 0.0 0.9 0.00 0.00 0.00 78 1017.1
20260902005505 84 355 0.0 0.9 0.00 0.00 0.00 78 1017.1
20260902005005 84 355 0.0 0.9 0.00 0.00 0.00 77 1017.1
20260902004505 85 355 0.0 0.9 0.00 0.00 0.00 76 1017.1
20260902004005 85 355 0.0 0.9 0.00 0.00 0.00 76 1017.4
20260902003005 86 355 0.0 0.0 0.00 0.00 0.00 75 1017.4
20260902002504 86 355 0.0 0.0 0.00 0.00 0.00 74 1017.4
20260902002005 87 355 0.0 0.0 0.00 0.00 0.00 74 1017.4
20260902001505 87 355 0.0 0.0 0.00 0.00 0.00 73 1017.4
20260902001005 88 355 0.0 0.0 0.00 0.00 0.00 72 1017.4
20260902000005 89 355 0.0 0.0 0.00 0.00 0.00 70 1017.4
20260901235505 89 355 0.0 0.0 0.00 0.00 0.00 69 1017.4
20260901235006 89 355 0.0 0.0 0.00 0.00 0.00 68 1017.4
20260901234005 90 355 0.0 0.0 0.00 0.00 0.00 66 1017.4
20260901233504 90 355 0.0 0.0 0.00 0.00 0.00 65 1017.4
20260901231505 91 355 0.0 0.0 0.00 0.00 0.00 59 1017.4
20260901230505 91 355 0.0 0.0 0.00 0.00 0.00 57 1017.4
20260901230005 91 355 0.0 0.9 0.00 0.00 0.00 56 1017.4
20260901225005 91 355 0.0 0.9 0.00 0.00 0.00 55 1017.4
20260901224005 92 355 0.0 1.7 0.00 0.00 0.00 54 1017.4
20260901223505 92 355 0.0 1.7 0.00 0.00 0.00 52 1017.4
20260901223006 92 355 0.0 1.7 0.00 0.00 0.00 52 1017.4
20260901222505 92 355 0.9 1.7 0.00 0.00 0.00 53 1017.4
20260901222006 92 116 0.9 1.7 0.00 0.00 0.00 52 1017.3
20260901221505 92 116 0.9 1.7 0.00 0.00 0.00 53 1017.3
20260901221005 92 116 0.0 1.7 0.00 0.00 0.00 52 1017.3
20260901220505 92 67 0.0 0.9 0.00 0.00 0.00 52 1017.3
20260901220005 92 67 0.0 1.7 0.00 0.00 0.00 51 1017.3
20260901215505 92 12 0.9 1.7 0.00 0.00 0.00 51 1017.3
20260901215005 92 130 0.0 1.7 0.00 0.00 0.00 53 1017.3
20260901213505 92 355 1.7 2.6 0.00 0.00 0.00 51 1017.4
20260901213005 92 95 0.9 1.7 0.00 0.00 0.00 51 1017.4
20260901212505 92 341 0.9 2.6 0.00 0.00 0.00 51 1017.4
20260901212006 92 345 1.7 2.6 0.00 0.00 0.00 51 1017.4
20260901211505 92 11 1.7 2.6 0.00 0.00 0.00 50 1017.4
20260901211005 93 15 1.7 2.6 0.00 0.00 0.00 50 1017.4
20260901210505 93 344 1.7 4.3 0.00 0.00 0.00 50 1017.4
20260901210004 93 336 1.7 2.6 0.00 0.00 0.00 49 1017.6
20260901205504 93 327 0.9 2.6 0.00 0.00 0.00 49 1017.6
20260901205005 93 1 0.9 2.6 0.00 0.00 0.00 50 1017.6
20260901204505 92 5 0.9 2.6 0.00 0.00 0.00 50 1017.6
20260901204005 92 15 0.0 0.9 0.00 0.00 0.00 50 1017.9
20260901203506 93 13 0.9 2.6 0.00 0.00 0.00 49 1017.9
20260901203006 93 348 1.7 2.6 0.00 0.00 0.00 48 1017.9
20260901202504 94 87 0.0 1.7 0.00 0.00 0.00 49 1017.9
20260901202005 93 225 0.0 1.7 0.00 0.00 0.00 51 1017.9
20260901201006 93 33 1.7 2.6 0.00 0.00 0.00 49 1018.1
20260901200505 93 302 0.9 1.7 0.00 0.00 0.00 49 1018.1
20260901195505 94 3 1.7 2.6 0.00 0.00 0.00 49 1018.6
20260901195005 93 32 0.9 2.6 0.00 0.00 0.00 53 1018.6
20260901194506 94 23 0.9 1.7 0.00 0.00 0.00 50 1018.6